Volver al catálogo

ICO G-1

ActivoComunicacionesGEO
NORAD 32763·PAYLOAD·🇺🇸 United States

Lanzado Apr 14, 2008 desde Cape Canaveral Space Force Station

Loading…

TLE

ActualizadoSource: Space-Track

Época: Sep 14, 2026, 11:48 UTC

1 32763U 08016A   26257.49180979 -.00000179  00000-0  00000-0 0  9993
2 32763   5.5419  35.8494 0002448 129.1946 272.6369  1.00275369 67449

Sigue ICO G-1 en tiempo real con AllMySat

Download on the App Store